Погода в Зямбайгурте

Россия / Удмуртская Республика     56°45′34″N   51°37′14″E
В апреле 2022 года жителям России запретили посещать сайт meteo.paraplan.net по решению Генеральной прокуратуры. Аудитория сайта уменьшилась в 10 раз. Владельцы сайта не видят смысла в поддержке погодного сервера в таких условиях. Сайт будет закрыт в октябре.
темп.,
°C
ветер,
м/с
пор.,
м/с
влажн.,
%
обл.,
%
осадки,
мм/ч
давл.,
гПа
погр.,
м
3 октября, пн
пн301:00+13ю51393100 0.0 1014572
04:00+12ю61486100 0.0 1014469
07:00+11ю61387100 1.1 1015446
10:00+13ю61574100 1.6 1016557
13:00+16ю71358100 0.0 1017671
16:00+16ю6135348 0.0 1018740
19:00+13ю5155674 0.0 1019465
22:00+12ю6165212 0.0 1021546
4 октября, вт
вт401:00+11ю515555 0.0 1022428
04:00+9ю51355100 0.0 1023334
07:00+9ююв41255100 0.0 1024320
10:00+12ю51248100 0.0 1025455
13:00+14ю51142100 0.0 1026714
16:00+12ююв51253100 0.0 1026569
19:00+11ююв51343100 0.0 1026476
22:00+9ююв41245100 0.0 1026319
5 октября, ср
ср501:00+9ю41044100 0.0 1027364
04:00+8ююв41147100 0.0 1026268
07:00+7ююв51266100 0.4 1025352
10:00+10ю61165100 0.4 1025643
13:00+11ю61149100 0.0 1024671
16:00+10ююв51249100 0.1 1022664
19:00+9ю61376100 0.4 1022769
22:00+7ююв51381100 2.1 1020636
6 октября, чт
чт601:00+6ююв51087100 1.4 1018590
04:00+7ююв4994100 2.5 1016484
07:00+7ююв4897100 2.5 1015469
10:00+8ю3797100 2.7 1013418
13:00+9ююз258598 0.7 1013368
16:00+9юз357695 1.0 1012648
19:00+6ююз349196 0.6 1013102
22:00+5зюз379413 0.6 1013170
7 октября, пт
пт701:00+4юз3597100 0.0 1013134
04:00+7зюз4895100 0.4 1012447
07:00+4юз3996100 0.1 1012244
10:00+7юз51078100 0.1 1011530
13:00+6ююз51191100 0.7 1010692
16:00+7зюз51095100 0.9 1010633
19:00+8з5118976 0.1 1011588
22:00+8зюз61390100 0.3 1011624